#Datum;Uhrzeit;WR;Pac;DaySum;Status;WR;Pac;DaySum;Status;Pdc1;Udc;Temp;WR;Pac;DaySum;Status;Pdc1;Udc;Temp;WR;Pac;DaySum;Status;Pdc1;Udc;Temp;WR;Pac;DaySum;Status;Pdc1;Pdc2;Udc1;Udc2;Temp;WR;Pac;DaySum;Status;Pdc1;Pdc2;Udc1;Udc2;Temp;WR;Pac;DaySum;Status;Pdc1;Udc;Temp;WR;Pac;DaySum;Status;Pdc1;Udc;Temp;WR;Pac;DaySum;Status;Pdc1;Udc;Temp
05.12.17;23:55:00;1;341;10979;0;2;0;1481;0;0;0;0;3;0;931;0;0;0;0;4;0;563;0;0;0;0;5;0;755;0;0;0;0;0;0;6;0;821;0;0;0;0;0;0;7;0;1618;0;0;0;0;8;0;1519;0;0;0;0;9;0;827;0;0;0;0
05.12.17;23:50:00;1;288;10930;0;2;0;1481;0;0;0;0;3;0;931;0;0;0;0;4;0;563;0;0;0;0;5;0;755;0;0;0;0;0;0;6;0;821;0;0;0;0;0;0;7;0;1618;0;0;0;0;8;0;1519;0;0;0;0;9;0;827;0;0;0;0
05.12.17;23:45:00;1;285;10906;0;2;0;1481;0;0;0;0;3;0;931;0;0;0;0;4;0;563;0;0;0;0;5;0;755;0;0;0;0;0;0;6;0;821;0;0;0;0;0;0;7;0;1618;0;0;0;0;8;0;1519;0;0;0;0;9;0;827;0;0;0;0
05.12.17;23:40:00;1;889;10861;0;2;0;1481;0;0;0;0;3;0;931;0;0;0;0;4;0;563;0;0;0;0;5;0;755;0;0;0;0;0;0;6;0;821;0;0;0;0;0;0;7;0;1618;0;0;0;0;8;0;1519;0;0;0;0;9;0;827;0;0;0;0
05.12.17;23:35:00;1;284;10835;0;2;0;1481;0;0;0;0;3;0;931;0;0;0;0;4;0;563;0;0;0;0;5;0;755;0;0;0;0;0;0;6;0;821;0;0;0;0;0;0;7;0;1618;0;0;0;0;8;0;1519;0;0;0;0;9;0;827;0;0;0;0
05.12.17;23:30:00;1;288;10811;0;2;0;1481;0;0;0;0;3;0;931;0;0;0;0;4;0;563;0;0;0;0;5;0;755;0;0;0;0;0;0;6;0;821;0;0;0;0;0;0;7;0;1618;0;0;0;0;8;0;1519;0;0;0;0;9;0;827;0;0;0;0
05.12.17;23:25:00;1;291;10764;0;2;0;1481;0;0;0;0;3;0;931;0;0;0;0;4;0;563;0;0;0;0;5;0;755;0;0;0;0;0;0;6;0;821;0;0;0;0;0;0;7;0;1618;0;0;0;0;8;0;1519;0;0;0;0;9;0;827;0;0;0;0
05.12.17;23:20:00;1;335;10740;0;2;0;1481;0;0;0;0;3;0;931;0;0;0;0;4;0;563;0;0;0;0;5;0;755;0;0;0;0;0;0;6;0;821;0;0;0;0;0;0;7;0;1618;0;0;0;0;8;0;1519;0;0;0;0;9;0;827;0;0;0;0
05.12.17;23:15:00;1;356;10689;0;2;0;1481;0;0;0;0;3;0;931;0;0;0;0;4;0;563;0;0;0;0;5;0;755;0;0;0;0;0;0;6;0;821;0;0;0;0;0;0;7;0;1618;0;0;0;0;8;0;1519;0;0;0;0;9;0;827;0;0;0;0
05.12.17;23:10:00;1;361;10659;0;2;0;1481;0;0;0;0;3;0;931;0;0;0;0;4;0;563;0;0;0;0;5;0;755;0;0;0;0;0;0;6;0;821;0;0;0;0;0;0;7;0;1618;0;0;0;0;8;0;1519;0;0;0;0;9;0;827;0;0;0;0
05.12.17;23:05:00;1;724;10624;0;2;0;1481;0;0;0;0;3;0;931;0;0;0;0;4;0;563;0;0;0;0;5;0;755;0;0;0;0;0;0;6;0;821;0;0;0;0;0;0;7;0;1618;0;0;0;0;8;0;1519;0;0;0;0;9;0;827;0;0;0;0
05.12.17;23:00:00;1;316;10578;0;2;0;1481;0;0;0;0;3;0;931;0;0;0;0;4;0;563;0;0;0;0;5;0;755;0;0;0;0;0;0;6;0;821;0;0;0;0;0;0;7;0;1618;0;0;0;0;8;0;1519;0;0;0;0;9;0;827;0;0;0;0
05.12.17;22:55:00;1;1024;10551;0;2;0;1481;0;0;0;0;3;0;931;0;0;0;0;4;0;563;0;0;0;0;5;0;755;2;0;0;0;0;0;6;0;821;2;0;0;0;0;0;7;0;1618;0;0;0;0;8;0;1519;0;0;0;0;9;0;827;0;0;0;0
05.12.17;22:50:00;1;386;10498;0;2;0;1481;0;0;0;0;3;0;931;0;0;0;0;4;0;563;0;0;0;0;5;0;755;2;0;0;0;0;0;6;0;821;2;0;0;0;0;0;7;0;1618;0;0;0;0;8;0;1519;0;0;0;0;9;0;827;0;0;0;0
05.12.17;22:45:00;1;377;10466;0;2;0;1481;0;0;0;0;3;0;931;0;0;0;0;4;0;563;0;0;0;0;5;0;755;2;0;0;0;0;0;6;0;821;2;0;0;0;0;0;7;0;1618;0;0;0;0;8;0;1519;0;0;0;0;9;0;827;0;0;0;0
05.12.17;22:40:00;1;391;10411;0;2;0;1481;0;0;0;0;3;0;931;0;0;0;0;4;0;563;0;0;0;0;5;0;755;2;0;0;0;0;0;6;0;821;2;0;0;0;0;0;7;0;1618;0;0;0;0;8;0;1519;0;0;0;0;9;0;827;0;0;0;0
05.12.17;22:35:00;1;415;10378;0;2;0;1481;0;0;0;0;3;0;931;0;0;0;0;4;0;563;0;0;0;0;5;0;755;2;0;0;0;0;0;6;0;821;2;0;0;0;0;0;7;0;1618;0;0;0;0;8;0;1519;0;0;0;0;9;0;827;0;0;0;0
05.12.17;22:30:00;1;428;10343;0;2;0;1481;0;0;0;0;3;0;931;0;0;0;0;4;0;563;0;0;0;0;5;0;755;2;0;0;0;0;0;6;0;821;2;0;0;0;0;0;7;0;1618;0;0;0;0;8;0;1519;0;0;0;0;9;0;827;0;0;0;0
05.12.17;22:25:00;1;423;10282;0;2;0;1481;0;0;0;0;3;0;931;0;0;0;0;4;0;563;0;0;0;0;5;0;755;2;0;0;0;0;0;6;0;821;2;0;0;0;0;0;7;0;1618;0;0;0;0;8;0;1519;0;0;0;0;9;0;827;0;0;0;0
05.12.17;22:20:00;1;1086;10247;0;2;0;1481;0;0;0;0;3;0;931;0;0;0;0;4;0;563;0;0;0;0;5;0;755;2;0;0;0;0;0;6;0;821;2;0;0;0;0;0;7;0;1618;0;0;0;0;8;0;1519;0;0;0;0;9;0;827;0;0;0;0
05.12.17;22:15:00;1;343;10188;0;2;0;1481;0;0;0;0;3;0;931;0;0;0;0;4;0;563;0;0;0;0;5;0;755;2;0;0;0;0;0;6;0;821;2;0;0;0;0;0;7;0;1618;0;0;0;0;8;0;1519;0;0;0;0;9;0;827;0;0;0;0
05.12.17;22:10:00;1;349;10159;0;2;0;1481;0;0;0;0;3;0;931;0;0;0;0;4;0;563;0;0;0;0;5;0;755;2;0;0;0;0;0;6;0;821;2;0;0;0;0;0;7;0;1618;0;0;0;0;8;0;1519;0;0;0;0;9;0;827;0;0;0;0
05.12.17;22:05:00;1;445;10103;0;2;0;1481;0;0;0;0;3;0;931;0;0;0;0;4;0;563;0;0;0;0;5;0;755;2;0;0;0;0;0;6;0;821;2;0;0;0;0;0;7;0;1618;0;0;0;0;8;0;1519;0;0;0;0;9;0;827;0;0;0;0
05.12.17;22:00:00;1;320;10074;0;2;0;1481;0;0;0;0;3;0;931;0;0;0;0;4;0;563;0;0;0;0;5;0;755;2;0;0;0;0;0;6;0;821;2;0;0;0;0;0;7;0;1618;0;0;0;0;8;0;1519;0;0;0;0;9;0;827;0;0;0;0
05.12.17;21:55:00;1;974;10047;0;2;0;1481;0;0;0;0;3;0;931;0;0;0;0;4;0;563;0;0;0;0;5;0;755;2;0;0;0;0;0;6;0;821;2;0;0;0;0;0;7;0;1618;0;0;0;0;8;0;1519;0;0;0;0;9;0;827;0;0;0;0
05.12.17;21:50:00;1;387;9995;0;2;0;1481;0;0;0;0;3;0;931;0;0;0;0;4;0;563;0;0;0;0;5;0;755;2;0;0;0;0;0;6;0;821;2;0;0;0;0;0;7;0;1618;0;0;0;0;8;0;1519;0;0;0;0;9;0;827;0;0;0;0
05.12.17;21:45:00;1;401;9963;0;2;0;1481;0;0;0;0;3;0;931;0;0;0;0;4;0;563;0;0;0;0;5;0;755;2;0;0;0;0;0;6;0;821;2;0;0;0;0;0;7;0;1618;0;0;0;0;8;0;1519;0;0;0;0;9;0;827;0;0;0;0
05.12.17;21:40:00;1;321;9909;0;2;0;1481;0;0;0;0;3;0;931;0;0;0;0;4;0;563;0;0;0;0;5;0;755;2;0;0;0;0;0;6;0;821;2;0;0;0;0;0;7;0;1618;0;0;0;0;8;0;1519;0;0;0;0;9;0;827;0;0;0;0
05.12.17;21:35:00;1;351;9882;0;2;0;1481;0;0;0;0;3;0;931;0;0;0;0;4;0;563;0;0;0;0;5;0;755;2;0;0;0;0;0;6;0;821;2;0;0;0;0;0;7;0;1618;0;0;0;0;8;0;1519;0;0;0;0;9;0;827;0;0;0;0
05.12.17;21:30:00;1;344;9830;0;2;0;1481;0;0;0;0;3;0;931;0;0;0;0;4;0;563;0;0;0;0;5;0;755;2;0;0;0;0;0;6;0;821;2;0;0;0;0;0;7;0;1618;0;0;0;0;8;0;1519;0;0;0;0;9;0;827;0;0;0;0
05.12.17;21:25:00;1;350;9801;0;2;0;1481;0;0;0;0;3;0;931;0;0;0;0;4;0;563;0;0;0;0;5;0;755;2;0;0;0;0;0;6;0;821;2;0;0;0;0;0;7;0;1618;0;0;0;0;8;0;1519;0;0;0;0;9;0;827;0;0;0;0
05.12.17;21:20:00;1;1253;9771;0;2;0;1481;0;0;0;0;3;0;931;0;0;0;0;4;0;563;0;0;0;0;5;0;755;2;0;0;0;0;0;6;0;821;2;0;0;0;0;0;7;0;1618;0;0;0;0;8;0;1519;0;0;0;0;9;0;827;0;0;0;0
05.12.17;21:15:00;1;418;9691;0;2;0;1481;0;0;0;0;3;0;931;0;0;0;0;4;0;563;0;0;0;0;5;0;755;2;0;0;0;0;0;6;0;821;2;0;0;0;0;0;7;0;1618;0;0;0;0;8;0;1519;0;0;0;0;9;0;827;0;0;0;0
05.12.17;21:10:00;1;1167;9655;0;2;0;1481;0;0;0;0;3;0;931;0;0;0;0;4;0;563;0;0;0;0;5;0;755;2;0;0;0;0;0;6;0;821;2;0;0;0;0;0;7;0;1618;0;0;0;0;8;0;1519;0;0;0;0;9;0;827;0;0;0;0
05.12.17;21:05:00;1;468;9593;0;2;0;1481;0;0;0;0;3;0;931;0;0;0;0;4;0;563;0;0;0;0;5;0;755;2;0;0;0;0;0;6;0;821;2;0;0;0;0;0;7;0;1618;0;0;0;0;8;0;1519;0;0;0;0;9;0;827;0;0;0;0
05.12.17;21:00:00;1;303;9561;0;2;0;1481;0;0;0;0;3;0;931;0;0;0;0;4;0;563;0;0;0;0;5;0;755;2;0;0;0;0;0;6;0;821;2;0;0;0;0;0;7;0;1618;0;0;0;0;8;0;1519;0;0;0;0;9;0;827;0;0;0;0
05.12.17;20:55:00;1;744;9532;0;2;0;1481;0;0;0;0;3;0;931;0;0;0;0;4;0;563;0;0;0;0;5;0;755;2;0;0;0;0;0;6;0;821;2;0;0;0;0;0;7;0;1618;0;0;0;0;8;0;1519;0;0;0;0;9;0;827;0;0;0;0
05.12.17;20:50:00;1;601;9477;0;2;0;1481;0;0;0;0;3;0;931;0;0;0;0;4;0;563;0;0;0;0;5;0;755;2;0;0;0;0;0;6;0;821;2;0;0;0;0;0;7;0;1618;0;0;0;0;8;0;1519;0;0;0;0;9;0;827;0;0;0;0
05.12.17;20:45:00;1;1335;9423;0;2;0;1481;0;0;0;0;3;0;931;0;0;0;0;4;0;563;0;0;0;0;5;0;755;2;0;0;0;0;0;6;0;821;2;0;0;0;0;0;7;0;1618;0;0;0;0;8;0;1519;0;0;0;0;9;0;827;0;0;0;0
05.12.17;20:40:00;1;665;9344;0;2;0;1481;0;0;0;0;3;0;931;0;0;0;0;4;0;563;0;0;0;0;5;0;755;2;0;0;0;0;0;6;0;821;2;0;0;0;0;0;7;0;1618;0;0;0;0;8;0;1519;0;0;0;0;9;0;827;0;0;0;0
05.12.17;20:35:00;1;1004;9289;0;2;0;1481;0;0;0;0;3;0;931;0;0;0;0;4;0;563;0;0;0;0;5;0;755;2;0;0;0;0;0;6;0;821;2;0;0;0;0;0;7;0;1618;0;0;0;0;8;0;1519;0;0;0;0;9;0;827;0;0;0;0
05.12.17;20:30:00;1;665;9209;0;2;0;1481;0;0;0;0;3;0;931;0;0;0;0;4;0;563;0;0;0;0;5;0;755;2;0;0;0;0;0;6;0;821;2;0;0;0;0;0;7;0;1618;0;0;0;0;8;0;1519;0;0;0;0;9;0;827;0;0;0;0
05.12.17;20:25:00;1;677;9153;0;2;0;1481;0;0;0;0;3;0;931;0;0;0;0;4;0;563;0;0;0;0;5;0;755;2;0;0;0;0;0;6;0;821;2;0;0;0;0;0;7;0;1618;0;0;0;0;8;0;1519;0;0;0;0;9;0;827;0;0;0;0
05.12.17;20:20:00;1;1329;9097;0;2;0;1481;0;0;0;0;3;0;931;0;0;0;0;4;0;563;0;0;0;0;5;0;755;2;0;0;0;0;0;6;0;821;2;0;0;0;0;0;7;0;1618;0;0;0;0;8;0;1519;0;0;0;0;9;0;827;0;0;0;0
05.12.17;20:15:00;1;682;9017;0;2;0;1481;0;0;0;0;3;0;931;0;0;0;0;4;0;563;0;0;0;0;5;0;755;2;0;0;0;0;0;6;0;821;2;0;0;0;0;0;7;0;1618;0;0;0;0;8;0;1519;0;0;0;0;9;0;827;0;0;0;0
05.12.17;20:10:00;1;697;8958;0;2;0;1481;0;0;0;0;3;0;931;0;0;0;0;4;0;563;0;0;0;0;5;0;755;2;0;0;0;0;0;6;0;821;2;0;0;0;0;0;7;0;1618;0;0;0;0;8;0;1519;0;0;0;0;9;0;827;0;0;0;0
05.12.17;20:05:00;1;1347;8900;0;2;0;1481;0;0;0;0;3;0;931;0;0;0;0;4;0;563;0;0;0;0;5;0;755;2;0;0;0;0;0;6;0;821;2;0;0;0;0;0;7;0;1618;0;0;0;0;8;0;1519;0;0;0;0;9;0;827;0;0;0;0
05.12.17;20:00:00;1;651;8807;0;2;0;1481;0;0;0;0;3;0;931;0;0;0;0;4;0;563;0;0;0;0;5;0;755;2;0;0;0;0;0;6;0;821;2;0;0;0;0;0;7;0;1618;0;0;0;0;8;0;1519;0;0;0;0;9;0;827;0;0;0;0
05.12.17;19:55:00;1;1290;8753;0;2;0;1481;0;0;0;0;3;0;931;0;0;0;0;4;0;563;0;0;0;0;5;0;755;2;0;0;0;0;0;6;0;821;2;0;0;0;0;0;7;0;1618;0;0;0;0;8;0;1519;0;0;0;0;9;0;827;0;0;0;0
05.12.17;19:50:00;1;1203;8587;0;2;0;1481;0;0;0;0;3;0;931;0;0;0;0;4;0;563;0;0;0;0;5;0;755;2;0;0;0;0;0;6;0;821;2;0;0;0;0;0;7;0;1618;0;0;0;0;8;0;1519;0;0;0;0;9;0;827;0;0;0;0
05.12.17;19:45:00;1;676;8514;0;2;0;1481;0;0;0;0;3;0;931;0;0;0;0;4;0;563;0;0;0;0;5;0;755;2;0;0;0;0;0;6;0;821;2;0;0;0;0;0;7;0;1618;0;0;0;0;8;0;1519;0;0;0;0;9;0;827;0;0;0;0
05.12.17;19:40:00;1;1229;8458;0;2;0;1481;0;0;0;0;3;0;931;0;0;0;0;4;0;563;0;0;0;0;5;0;755;2;0;0;0;0;0;6;0;821;2;0;0;0;0;0;7;0;1618;0;0;0;0;8;0;1519;0;0;0;0;9;0;827;0;0;0;0
05.12.17;19:35:00;1;647;8365;0;2;0;1481;0;0;0;0;3;0;931;0;0;0;0;4;0;563;0;0;0;0;5;0;755;2;0;0;0;0;0;6;0;821;2;0;0;0;0;0;7;0;1618;0;0;0;0;8;0;1519;0;0;0;0;9;0;827;0;0;0;0
05.12.17;19:30:00;1;645;8311;0;2;0;1481;0;0;0;0;3;0;931;0;0;0;0;4;0;563;0;0;0;0;5;0;755;2;0;0;0;0;0;6;0;821;2;0;0;0;0;0;7;0;1618;0;0;0;0;8;0;1519;0;0;0;0;9;0;827;0;0;0;0
05.12.17;19:25:00;1;1290;8258;0;2;0;1481;0;0;0;0;3;0;931;0;0;0;0;4;0;563;0;0;0;0;5;0;755;2;0;0;0;0;0;6;0;821;2;0;0;0;0;0;7;0;1618;0;0;0;0;8;0;1519;0;0;0;0;9;0;827;0;0;0;0
05.12.17;19:20:00;1;2859;8112;0;2;0;1481;0;0;0;0;3;0;931;0;0;0;0;4;0;563;0;0;0;0;5;0;755;2;0;0;0;0;0;6;0;821;2;0;0;0;0;0;7;0;1618;0;0;0;0;8;0;1519;0;0;0;0;9;0;827;0;0;0;0
05.12.17;19:15:00;1;1816;7875;0;2;0;1481;0;0;0;0;3;0;931;0;0;0;0;4;0;563;0;0;0;0;5;0;755;2;0;0;0;0;0;6;0;821;2;0;0;0;0;0;7;0;1618;0;0;0;0;8;0;1519;0;0;0;0;9;0;827;0;0;0;0
05.12.17;19:10:00;1;628;7742;0;2;0;1481;0;0;0;0;3;0;931;0;0;0;0;4;0;563;0;0;0;0;5;0;755;2;0;0;0;0;0;6;0;821;2;0;0;0;0;0;7;0;1618;0;0;0;0;8;0;1519;0;0;0;0;9;0;827;0;0;0;0
05.12.17;19:05:00;1;605;7663;0;2;0;1481;0;0;0;0;3;0;931;0;0;0;0;4;0;563;0;0;0;0;5;0;755;2;0;0;0;0;0;6;0;821;2;0;0;0;0;0;7;0;1618;0;0;0;0;8;0;1519;0;0;0;0;9;0;827;0;0;0;0
05.12.17;19:00:00;1;565;7611;0;2;0;1481;0;0;0;0;3;0;931;0;0;0;0;4;0;563;0;0;0;0;5;0;755;2;0;0;0;0;0;6;0;821;2;0;0;0;0;0;7;0;1618;0;0;0;0;8;0;1519;0;0;0;0;9;0;827;0;0;0;0
05.12.17;18:55:00;1;299;7566;0;2;0;1481;0;0;0;0;3;0;931;0;0;0;0;4;0;563;0;0;0;0;5;0;755;2;0;0;0;0;0;6;0;821;2;0;0;0;0;0;7;0;1618;0;0;0;0;8;0;1519;0;0;0;0;9;0;827;0;0;0;0
05.12.17;18:50:00;1;295;7541;0;2;0;1481;0;0;0;0;3;0;931;0;0;0;0;4;0;563;0;0;0;0;5;0;755;2;0;0;0;0;0;6;0;821;2;0;0;0;0;0;7;0;1618;0;0;0;0;8;0;1519;0;0;0;0;9;0;827;0;0;0;0
05.12.17;18:45:00;1;352;7516;0;2;0;1481;0;0;0;0;3;0;931;0;0;0;0;4;0;563;0;0;0;0;5;0;755;2;0;0;0;0;0;6;0;821;2;0;0;0;0;0;7;0;1618;0;0;0;0;8;0;1519;0;0;0;0;9;0;827;0;0;0;0
05.12.17;18:40:00;1;933;7487;0;2;0;1481;0;0;0;0;3;0;931;0;0;0;0;4;0;563;0;0;0;0;5;0;755;2;0;0;0;0;0;6;0;821;2;0;0;0;0;0;7;0;1618;0;0;0;0;8;0;1519;0;0;0;0;9;0;827;0;0;0;0
05.12.17;18:35:00;1;353;7432;0;2;0;1481;0;0;0;0;3;0;931;0;0;0;0;4;0;563;0;0;0;0;5;0;755;2;0;0;0;0;0;6;0;821;2;0;0;0;0;0;7;0;1618;0;0;0;0;8;0;1519;0;0;0;0;9;0;827;0;0;0;0
05.12.17;18:30:00;1;355;7403;0;2;0;1481;0;0;0;0;3;0;931;0;0;0;0;4;0;563;0;0;0;0;5;0;755;2;0;0;0;0;0;6;0;821;2;0;0;0;0;0;7;0;1618;0;0;0;0;8;0;1519;0;0;0;0;9;0;827;0;0;0;0
05.12.17;18:25:00;1;356;7373;0;2;0;1481;0;0;0;0;3;0;931;0;0;0;0;4;0;563;0;0;0;0;5;0;755;2;0;0;0;0;0;6;0;821;2;0;0;0;0;0;7;0;1618;0;0;0;0;8;0;1519;0;0;0;0;9;0;827;0;0;0;0
05.12.17;18:20:00;1;382;7343;0;2;0;1481;0;0;0;0;3;0;931;0;0;0;0;4;0;563;0;0;0;0;5;0;755;2;0;0;0;0;0;6;0;821;2;0;0;0;0;0;7;0;1618;0;0;0;0;8;0;1519;0;0;0;0;9;0;827;0;0;0;0
05.12.17;18:15:00;1;428;7311;0;2;0;1481;0;0;0;0;3;0;931;0;0;0;0;4;0;563;0;0;0;0;5;0;755;2;0;0;0;0;0;6;0;821;2;0;0;0;0;0;7;0;1618;0;0;0;0;8;0;1519;0;0;0;0;9;0;827;0;0;0;0
05.12.17;18:10:00;1;737;7276;0;2;0;1481;0;0;0;0;3;0;931;0;0;0;0;4;0;563;0;0;0;0;5;0;755;2;0;0;0;0;0;6;0;821;2;0;0;0;0;0;7;0;1618;0;0;0;0;8;0;1519;0;0;0;0;9;0;827;0;0;0;0
05.12.17;18:05:00;1;1496;7217;0;2;0;1481;0;0;0;0;3;0;931;0;0;0;0;4;0;563;0;0;0;0;5;0;755;2;0;0;0;0;0;6;0;821;2;0;0;0;0;0;7;0;1618;0;0;0;0;8;0;1519;0;0;0;0;9;0;827;0;0;0;0
05.12.17;18:00:00;1;371;7111;0;2;0;1481;0;0;0;0;3;0;931;0;0;0;0;4;0;563;0;0;0;0;5;0;755;2;0;0;0;0;0;6;0;821;2;0;0;0;0;0;7;0;1618;0;0;0;0;8;0;1519;0;0;0;0;9;0;827;0;0;0;0
05.12.17;17:55:00;1;392;7080;0;2;0;1481;0;0;0;0;3;0;931;0;0;0;0;4;0;563;0;0;0;0;5;0;755;2;0;0;0;0;0;6;0;821;2;0;0;0;0;0;7;0;1618;0;0;0;0;8;0;1519;0;0;0;0;9;0;827;0;0;0;0
05.12.17;17:50:00;1;415;7048;0;2;0;1481;0;0;0;0;3;0;931;0;0;0;0;4;0;563;0;0;0;0;5;0;755;2;0;0;0;0;0;6;0;821;2;0;0;0;0;0;7;0;1618;0;0;0;0;8;0;1519;0;0;0;0;9;0;827;0;0;0;0
05.12.17;17:45:00;1;418;7013;0;2;0;1481;0;0;0;0;3;0;931;0;0;0;0;4;0;563;0;0;0;0;5;0;755;2;0;0;0;0;0;6;0;821;2;0;0;0;0;0;7;0;1618;0;0;0;0;8;0;1519;0;0;0;0;9;0;827;0;0;0;0
05.12.17;17:40:00;1;370;6978;0;2;0;1481;0;0;0;0;3;0;931;0;0;0;0;4;0;563;0;0;0;0;5;0;755;2;0;0;0;0;0;6;0;821;2;0;0;0;0;0;7;0;1618;0;0;0;0;8;0;1519;0;0;0;0;9;0;827;0;0;0;0
05.12.17;17:35:00;1;372;6947;0;2;0;1481;0;0;0;0;3;0;931;0;0;0;0;4;0;563;0;0;0;0;5;0;755;2;0;0;0;0;0;6;0;821;2;0;0;0;0;0;7;0;1618;0;0;0;0;8;0;1519;0;0;0;0;9;0;827;0;0;0;0
05.12.17;17:30:00;1;450;6915;0;2;0;1481;0;0;0;0;3;0;931;0;0;0;0;4;0;563;0;0;0;0;5;0;755;2;0;0;0;0;0;6;0;821;2;0;0;0;0;0;7;0;1618;0;0;0;0;8;0;1519;0;0;0;0;9;0;827;0;0;0;0
05.12.17;17:25:00;1;456;6877;0;2;0;1481;0;0;0;0;3;0;931;0;0;0;0;4;0;563;0;0;0;0;5;0;755;2;0;0;0;0;0;6;0;821;2;0;0;0;0;0;7;0;1618;0;0;0;0;8;0;1519;0;0;0;0;9;0;827;0;0;0;0
05.12.17;17:20:00;1;449;6814;0;2;0;1481;0;0;0;0;3;0;931;0;0;0;0;4;0;563;0;0;0;0;5;0;755;2;0;0;0;0;0;6;0;821;2;0;0;0;0;0;7;0;1618;0;0;0;0;8;0;1519;0;0;0;0;9;0;827;0;0;0;0
05.12.17;17:15:00;1;493;6776;0;2;0;1481;0;0;0;0;3;0;931;0;0;0;0;4;0;563;0;0;0;0;5;0;755;2;0;0;0;0;0;6;0;821;2;0;0;0;0;0;7;0;1618;0;0;0;0;8;0;1519;0;0;0;0;9;0;827;0;0;0;0
05.12.17;17:10:00;1;493;6735;0;2;0;1481;0;0;0;0;3;0;931;0;0;0;0;4;0;563;0;0;0;0;5;0;755;2;0;0;0;0;0;6;0;821;2;0;0;0;0;0;7;0;1618;0;0;0;0;8;0;1519;0;0;0;0;9;0;827;0;0;0;0
05.12.17;17:05:00;1;493;6694;0;2;0;1481;0;0;0;0;3;0;931;0;0;0;0;4;0;563;0;0;0;0;5;0;755;2;0;0;0;0;0;6;0;821;2;0;0;0;0;0;7;0;1618;0;0;0;0;8;0;1519;0;0;0;0;9;0;827;0;0;0;0
05.12.17;17:00:00;1;449;6653;0;2;0;1481;0;0;0;0;3;0;931;0;0;0;0;4;0;563;0;0;0;0;5;0;755;2;0;0;0;0;0;6;0;821;2;0;0;0;0;0;7;0;1618;0;0;0;0;8;0;1519;0;0;0;0;9;0;827;0;0;0;0
05.12.17;16:55:00;1;448;6616;0;2;0;1481;0;0;0;0;3;0;931;0;0;0;0;4;0;563;0;0;0;0;5;0;755;2;0;0;0;0;0;6;0;821;2;0;0;0;0;0;7;0;1618;0;0;0;0;8;0;1519;0;0;0;0;9;0;827;0;0;0;0
05.12.17;16:50:00;1;512;6578;0;2;0;1481;0;0;0;0;3;0;931;0;0;0;0;4;0;563;0;0;0;0;5;0;755;2;0;0;0;0;0;6;0;821;2;0;0;0;0;0;7;0;1618;0;0;0;0;8;0;1519;0;0;0;0;9;0;827;0;0;0;0
05.12.17;16:45:00;1;419;6535;0;2;0;1481;0;0;0;0;3;0;931;0;0;0;0;4;0;563;0;0;0;0;5;0;755;2;0;0;0;0;0;6;0;821;2;0;0;0;0;0;7;0;1618;0;0;0;0;8;0;1519;0;0;0;0;9;0;827;0;0;0;0
05.12.17;16:40:00;1;393;6500;0;2;0;1481;0;0;0;0;3;0;931;0;0;0;0;4;0;563;0;0;0;0;5;0;755;2;0;0;0;0;0;6;0;821;2;0;0;0;0;0;7;0;1618;0;0;0;0;8;0;1519;0;0;0;0;9;0;827;0;0;0;0
05.12.17;16:35:00;1;338;6468;0;2;0;1481;0;0;0;0;3;0;931;0;0;0;0;4;0;563;0;0;0;0;5;0;755;2;0;0;0;0;0;6;0;821;2;0;0;0;0;0;7;0;1618;0;0;0;0;8;0;1519;0;0;0;0;9;0;827;0;0;0;0
05.12.17;16:30:00;1;555;6437;0;2;0;1481;0;0;108;3;3;0;931;0;0;239;9;4;0;563;0;0;0;0;5;0;755;2;0;0;0;0;0;6;0;821;2;0;0;0;0;0;7;0;1618;0;0;0;0;8;0;1519;0;0;0;0;9;0;827;0;0;0;0
05.12.17;16:25:00;1;526;6392;0;2;0;1481;6;0;273;8;3;0;931;6;0;299;11;4;0;563;0;0;10;1;5;0;755;2;0;0;0;0;0;6;0;821;1;0;0;0;0;0;7;0;1618;0;0;0;0;8;0;1519;0;0;0;0;9;0;827;0;0;0;0
05.12.17;16:20:00;1;1090;6349;0;2;0;1481;6;0;305;8;3;0;931;6;0;354;11;4;0;563;2;0;80;6;5;0;755;2;0;0;0;0;0;6;0;821;2;0;0;0;0;1;7;0;1618;0;0;0;0;8;0;1519;0;0;0;0;9;0;827;0;0;0;0
05.12.17;16:15:00;1;246;6279;0;2;0;1481;6;0;321;8;3;0;931;6;0;388;11;4;0;563;1;0;96;6;5;0;755;2;0;0;0;0;0;6;0;821;1;0;0;0;0;2;7;0;1618;0;0;0;0;8;0;1519;0;0;0;0;9;0;827;0;0;0;0
05.12.17;16:10:00;1;243;6259;0;2;0;1481;6;0;358;8;3;0;931;6;1;421;12;4;0;563;1;0;139;6;5;0;755;2;0;0;216;224;14;6;0;821;23;8;2;499;180;17;7;0;1618;0;0;243;10;8;0;1519;0;0;246;9;9;0;827;0;0;261;6
05.12.17;16:05:00;1;204;6215;0;2;0;1481;6;0;386;8;3;0;931;6;2;462;12;4;0;563;1;0;187;6;5;0;755;23;0;4;404;439;18;6;0;821;23;5;3;182;557;17;7;0;1618;6;0;363;12;8;0;1519;6;0;372;11;9;0;827;6;0;398;8
05.12.17;16:00:00;1;195;6198;0;2;0;1481;6;0;390;8;3;1;931;6;2;474;12;4;0;563;1;0;194;7;5;0;755;26;0;3;410;451;18;6;0;821;23;8;4;182;563;17;7;0;1618;6;0;378;12;8;0;1519;6;0;386;11;9;0;827;6;0;403;8
05.12.17;15:55:00;1;670;6181;0;2;0;1481;6;0;389;8;3;2;931;6;5;438;12;4;0;563;1;0;191;7;5;0;755;26;0;2;410;501;18;6;0;821;23;6;3;182;561;18;7;0;1618;6;0;374;12;8;0;1519;6;0;382;11;9;0;827;6;0;411;8
05.12.17;15:50:00;1;195;6137;0;2;0;1481;6;0;388;8;3;1;931;6;2;469;12;4;0;563;1;0;189;7;5;0;755;23;0;2;406;463;18;6;0;821;23;6;4;586;181;18;7;0;1618;6;0;368;12;8;0;1519;6;0;377;12;9;0;827;6;0;404;8
05.12.17;15:45:00;1;200;6120;0;2;0;1481;6;0;390;9;3;0;931;6;0;493;12;4;0;563;1;0;193;7;5;0;755;23;0;1;411;551;18;6;0;821;1;6;3;183;564;18;7;0;1618;6;0;376;12;8;0;1519;6;0;384;12;9;0;827;6;0;385;8
05.12.17;15:40:00;1;579;6104;0;2;0;1481;6;0;399;9;3;1;931;3;6;464;12;4;0;563;1;0;209;7;5;5;755;1;0;2;409;585;19;6;0;821;23;6;3;491;576;19;7;0;1618;6;0;410;12;8;0;1519;6;0;407;12;9;0;827;6;0;435;8
05.12.17;15:35:00;1;193;6056;0;2;1;1481;6;5;396;9;3;1;931;6;5;488;12;4;0;563;3;0;209;7;5;19;754;1;0;5;414;664;19;6;0;821;1;7;1;431;585;19;7;0;1618;6;0;426;13;8;0;1519;6;0;431;12;9;0;827;6;0;464;9
05.12.17;15:30:00;1;264;6040;0;2;2;1481;6;5;408;9;3;2;930;6;5;509;12;4;0;563;3;0;226;7;5;7;754;1;0;2;427;696;19;6;0;821;8;7;3;512;597;20;7;0;1618;6;1;452;13;8;0;1519;6;1;456;12;9;1;827;6;1;493;9
05.12.17;15:25:00;1;751;6017;0;2;4;1481;6;8;405;9;3;0;930;6;6;507;12;4;0;563;3;0;231;8;5;8;753;1;0;4;423;687;19;6;0;821;8;4;3;536;596;20;7;2;1618;3;6;423;13;8;4;1519;3;6;427;12;9;0;827;6;0;521;9
05.12.17;15:20:00;1;319;5966;0;2;16;1480;6;24;407;9;3;3;930;6;13;503;12;4;0;563;3;0;199;8;5;48;752;1;6;13;407;666;20;6;35;821;1;28;21;374;340;21;7;1;1618;6;7;475;13;8;3;1519;6;7;477;13;9;4;827;4;7;499;9
05.12.17;15:15:00;1;319;5939;0;2;61;1479;4;85;356;10;3;0;930;6;0;564;12;4;15;563;3;15;199;8;5;75;749;4;13;27;390;640;20;6;60;818;4;42;31;261;226;21;7;15;1617;6;25;458;13;8;15;1518;6;30;460;13;9;4;826;3;8;540;9
05.12.17;15:10:00;1;708;5913;0;2;81;1474;4;105;365;10;3;14;930;4;24;522;13;4;13;562;3;14;198;8;5;92;742;4;19;31;390;640;20;6;75;812;4;55;40;261;226;21;7;56;1616;4;88;441;13;8;48;1517;4;85;444;13;9;9;826;6;16;526;9
05.12.17;15:05:00;1;271;5854;0;2;90;1467;4;113;363;10;3;11;929;6;18;550;13;4;27;560;3;28;198;8;5;92;734;4;21;35;390;640;20;6;81;806;4;48;35;261;226;21;7;50;1612;4;88;436;13;8;54;1513;4;84;433;13;9;5;825;6;10;551;9
05.12.17;15:00:00;1;247;5832;0;2;106;1460;4;131;363;10;3;51;927;4;76;465;13;4;38;558;3;39;198;8;5;99;726;4;28;41;390;640;20;6;93;799;4;60;43;261;226;21;7;82;1607;4;114;444;13;8;79;1509;4;116;446;13;9;8;825;6;11;563;9
05.12.17;14:55:00;1;660;5797;0;2;85;1451;4;107;356;10;3;16;923;6;28;510;13;4;12;555;3;13;198;8;5;85;718;4;19;34;390;640;20;6;75;792;4;42;30;261;226;21;7;51;1600;4;82;373;13;8;59;1502;4;82;369;13;9;0;824;6;0;578;9
05.12.17;14:50:00;1;193;5769;0;2;104;1444;4;129;359;10;3;39;922;6;66;518;13;4;30;554;3;31;198;8;5;98;711;4;24;39;390;640;20;6;89;785;4;43;31;261;226;21;7;80;1596;4;106;424;13;8;72;1497;4;107;430;13;9;13;824;4;19;529;9
05.12.17;14:45:00;1;280;5753;0;2;130;1435;4;157;371;10;3;75;919;4;110;471;13;4;55;551;3;57;198;9;5;114;702;4;35;55;390;640;20;6;105;778;4;47;37;261;226;21;7;108;1589;4;137;414;14;8;110;1491;4;139;435;13;9;23;823;3;33;539;10
05.12.17;14:40:00;1;258;5712;0;2;163;1425;4;193;373;10;3;96;913;4;135;500;13;4;77;547;3;80;199;9;5;136;693;4;48;65;390;640;20;6;128;769;4;69;54;261;226;21;7;154;1580;4;186;447;14;8;149;1482;4;186;460;13;9;82;821;4;109;495;10
05.12.17;14:35:00;1;259;5690;0;2;180;1411;4;208;371;10;3;108;905;4;145;512;13;4;80;541;3;84;199;9;5;145;681;4;55;67;390;640;20;6;139;758;4;84;65;261;226;21;7;165;1567;4;201;456;14;8;170;1469;4;203;436;13;9;91;814;4;114;481;10
05.12.17;14:30:00;1;295;5668;0;2;187;1396;4;213;373;11;3;107;896;4;149;516;13;4;83;534;3;86;199;9;5;145;669;4;54;72;390;640;20;6;139;747;4;67;52;261;226;21;7;170;1554;4;211;469;13;8;182;1455;4;214;462;13;9;97;806;4;124;487;10
05.12.17;14:25:00;1;285;5622;0;2;235;1380;4;264;370;11;3;144;887;4;183;498;13;4;112;527;3;117;209;9;5;172;657;4;62;76;390;640;20;6;172;735;4;85;68;261;226;21;7;221;1539;4;266;471;13;8;237;1440;4;268;464;13;9;123;798;4;153;516;10
05.12.17;14:20:00;1;302;5597;0;2;278;1361;4;312;382;11;3;175;875;4;214;499;14;4;146;518;5;153;212;9;5;193;643;4;73;90;390;640;20;6;203;720;4;109;89;261;226;21;7;288;1522;4;323;468;13;8;291;1421;4;327;476;13;9;156;788;4;184;525;10
05.12.17;14:15:00;1;773;5572;0;2;316;1338;4;349;390;11;3;199;860;4;238;505;14;4;163;506;5;170;213;9;5;206;626;4;80;96;390;640;20;6;217;703;4;144;116;261;226;21;7;328;1498;4;371;468;13;8;336;1397;4;377;477;13;9;182;775;4;214;529;10
05.12.17;14:10:00;1;395;5516;0;2;382;1312;4;417;394;11;3;239;844;4;282;518;14;4;205;492;5;214;215;9;5;242;609;4;104;116;390;640;20;6;259;685;4;138;113;261;226;21;7;418;1471;4;451;481;13;8;399;1369;4;447;485;13;9;220;760;4;253;527;10
05.12.17;14:05:00;1;196;5492;0;2;361;1280;4;396;395;11;3;231;824;4;274;522;13;4;191;475;5;199;215;9;5;226;589;4;91;108;390;640;20;6;248;663;4;157;131;261;226;21;7;400;1436;4;446;482;13;8;410;1336;4;450;484;13;9;224;742;4;256;525;10
05.12.17;14:00:00;1;983;5475;0;2;307;1249;4;338;386;11;3;193;804;4;233;505;13;4;157;459;5;164;212;9;5;193;570;4;71;90;390;640;20;6;215;642;4;128;106;261;226;21;7;326;1402;4;365;479;13;8;337;1301;4;367;479;13;9;181;723;4;210;532;10
05.12.17;13:55:00;1;193;5429;0;2;275;1224;4;306;377;11;3;171;788;4;212;511;13;4;133;446;5;138;210;8;5;174;554;4;64;79;390;640;20;6;194;625;4;93;76;261;226;20;7;282;1375;4;321;484;13;8;292;1273;4;331;477;13;9;154;708;4;182;539;10
05.12.17;13:50:00;1;194;5413;0;2;261;1201;4;292;384;11;3;161;774;4;202;505;13;4;128;435;5;133;208;8;5;163;539;4;60;77;390;640;20;6;189;608;4;113;89;261;226;20;7;261;1352;4;297;461;13;8;263;1249;4;298;472;13;9;141;695;4;170;528;10
05.12.17;13:45:00;1;667;5397;0;2;278;1179;4;309;384;11;3;170;761;4;212;512;14;4;138;424;5;144;209;8;5;174;526;4;63;74;390;640;20;6;196;593;4;120;97;261;226;20;7;276;1330;4;309;455;13;8;270;1227;4;311;486;13;9;149;683;4;176;530;10
05.12.17;13:40:00;1;194;5357;0;2;309;1156;4;345;396;11;3;192;746;4;233;517;14;4;156;412;5;163;206;8;5;187;511;4;68;83;390;640;20;6;212;576;4;112;92;261;226;20;7;309;1307;4;351;480;13;8;323;1204;4;351;470;13;9;174;671;4;203;528;10
05.12.17;13:35:00;1;404;5341;0;2;311;1130;4;344;385;11;3;193;730;4;234;516;14;4;159;399;5;165;207;8;5;179;496;4;66;82;390;640;20;6;215;558;4;130;112;261;226;20;7;308;1282;4;351;483;13;8;322;1178;4;355;484;13;9;175;656;4;204;517;10
05.12.17;13:30:00;1;193;5298;0;2;308;1104;4;342;385;11;3;191;714;4;232;517;14;4;154;386;5;160;206;8;5;179;481;4;65;79;390;640;20;6;209;540;4;106;89;261;226;20;7;314;1256;4;348;488;13;8;313;1151;4;354;488;13;9;174;642;4;203;520;10
05.12.17;13:25:00;1;215;5282;0;2;332;1078;4;365;379;11;3;207;698;4;248;484;14;4;168;373;5;175;206;8;5;185;466;4;69;87;390;640;20;6;227;523;4;140;121;261;226;20;7;342;1229;4;388;475;13;8;336;1125;4;381;494;13;9;191;627;4;223;522;10
05.12.17;13:20:00;1;630;5263;0;2;382;1051;4;418;385;11;3;240;681;4;281;493;14;4;196;359;5;204;208;8;5;207;450;4;83;96;390;640;20;6;246;504;4;122;116;261;226;20;7;415;1201;4;448;479;13;8;404;1096;4;448;452;13;9;226;611;4;256;526;10